This demonstration page uses our WeatherBlox Daily Observations layout. Learn more.

Left ArrowRight Arrow

Hourly Observations for October 9, 2016

Temp ( °F °C ) Dew Point ( °F °C ) Humidity (%) Winds ( mph kmh ) Pressure ( in mb ) Visibility ( mi km ) Precip ( " mm )
12:00 am 00:00 Cloudy with Thunderstorms 62 16.7 59 15 90 90 SE 13 20 30.06 1018 4 6 0.05 1.27
12:08 am 00:08 Cloudy with Strong Thunderstorms 63 17.2 59 15 87 87 E 21 33 30.03 1017 2 3 0.14 3.56
12:16 am 00:16 Cloudy with Thunderstorms 62 16.7 60 15.6 93 93 ENE 12 19 30.03 1017 2 3 0.24 6.10
12:24 am 00:24 Cloudy with Thunderstorms 63 17.2 59 15 87 87 NE 7 11 30.03 1017 10 16 0.24 6.10
12:51 am 00:51 Cloudy with Thunderstorms 62 16.7 58 14.4 86 86 SW 17 28 30.03 1017 8 13 0.27 6.86
12:58 am 00:58 Cloudy with Strong Thunderstorms 60 15.6 57 13.9 90 90 S 20 31 30.06 1018 2 3 0.13 3.30
1:03 am 01:03 Cloudy with Strong Thunderstorms 59 15 54 12.2 83 83 ESE 21 33 30.09 1019 1 2 0.33 8.38
1:11 am 01:11 Cloudy with Strong Thunderstorms 60 15.6 55 12.8 84 84 ENE 20 31 30.03 1017 2 3 0.55 13.97
1:19 am 01:19 Cloudy with Thunderstorms 60 15.6 56 13.3 86 86 ENE 12 19 30.06 1018 7 11 0.57 14.48
1:28 am 01:28 Mostly Cloudy with Thunderstorms 60 15.6 55 12.8 84 84 E 8 13 30.06 1018 10 16 0.57 14.48
1:41 am 01:41 Partly Cloudy with Nearby Thunderstorms 60 15.6 56 13.3 86 86 SE 9 15 30.06 1018 10 16 0.57 14.48
1:49 am 01:49 Mostly Clear 61 16 55 13 83 83 SSE 10 17 30.06 1018 10 16 0.57 14.48
1:51 am 01:51 Mostly Clear 61 16.1 56 13.3 84 84 SSE 9 15 30.02 1017 10 16 0.57 14.48
2:51 am 02:51 Clear 60 15.6 56 13.3 86 86 ESE 7 11 30.01 1016 10 16 0.00 0.00
3:51 am 03:51 Clear 61 16.1 55 12.8 81 81 ESE 12 19 30.01 1016 10 16 0.00 0.00
4:51 am 04:51 Clear 61 16.1 54 12.2 78 78 ESE 12 19 30.02 1017 10 16 0.00 0.00
5:51 am 05:51 Clear 61 16.1 53 11.7 75 75 ESE 12 19 30.03 1017 10 16 0.00 0.00
6:51 am 06:51 Mostly Sunny 62 16.7 53 11.7 73 73 E 9 15 30.04 1017 10 16 0.00 0.00
7:51 am 07:51 Cloudy 65 18.3 54 12.2 68 68 E 8 13 30.06 1018 10 16 0.00 0.00
8:51 am 08:51 Cloudy 69 20.6 55 12.8 61 61 E 9 15 30.10 1019 10 16 0.00 0.00
9:51 am 09:51 Cloudy 71 21.7 56 13.3 59 59 E 9 15 30.09 1019 10 16 0.00 0.00
10:51 am 10:51 Cloudy 74 23.3 58 14.4 57 57 E 8 13 30.07 1018 10 16 0.00 0.00
11:51 am 11:51 Mostly Sunny 76 24.4 60 15.6 58 58 E 10 17 30.04 1017 10 16 0.00 0.00
12:51 pm 12:51 Sunny 78 25.6 60 15.6 54 54 SE 9 15 30.01 1016 10 16 0.00 0.00
1:51 pm 13:51 Sunny 80 26.7 60 15.6 51 51 ESE 5 7 29.98 1015 10 16 0.00 0.00
2:51 pm 14:51 Sunny 82 27.8 59 15 46 46 VRB 6 9 29.94 1014 10 16 0.00 0.00
3:51 pm 15:51 Sunny 79 26.1 60 15.6 52 52 SW 5 7 29.93 1014 10 16 0.00 0.00
4:51 pm 16:51 Sunny 80 26.7 59 15 49 49 SSW 7 11 29.94 1014 10 16 0.00 0.00
5:51 pm 17:51 Mostly Sunny 76 24.4 59 15 56 56 S 6 9 29.95 1014 10 16 0.00 0.00
6:51 pm 18:51 Clear 71 21.7 59 15 66 66 ESE 5 7 29.97 1015 10 16 0.00 0.00
7:51 pm 19:51 Clear 68 20 59 15 73 73 E 9 15 29.98 1015 10 16 0.00 0.00
8:51 pm 20:51 Clear 67 19.4 57 13.9 71 71 E 6 9 29.99 1016 10 16 0.00 0.00
9:51 pm 21:51 Clear 67 19.4 58 14.4 73 73 E 6 9 29.99 1016 10 16 0.00 0.00
10:51 pm 22:51 Clear 64 17.8 59 15 84 84 E 5 7 30.00 1016 10 16 0.00 0.00
11:51 pm 23:51 Clear 63 17.2 59 15 87 87 E 6 9 29.98 1015 10 16 0.00 0.00

Powered by AerisWeather